Location: Saint-Gilles les Bains
(21.0539°S, 55.2287°E)
Time: 03:56:44
(UTC+04:00)

Hubble Space Telescope - Pass Details

Date: 16 April 2024
Orbit: 512 x 516 km, 28.5° (Epoch: 18 May)

Event Time Altitude Azimuth Distance (km) Brightness Sun altitude
Exits shadow 05:41:15 19° 253° (WSW) 1,293 2.1 -12.4°
Maximum altitude 05:43:45 39° 192° (SSW) 790 1.4 -11.8°
Drops below altitude 10° 05:47:34 10° 122° (ESE) 1,754 4.2 -10.9°
Sets 05:49:56 0° 114° (ESE) 2,643 5.4 -10.4°
